When you browse on this site, cookies collect data to enhance your experience and personalize the content and advertising you see.
Visit our Privacy Policy to learn more. By continuing to use the site, you agree to this use of cookies and data.
  • In Schweiz
  • Länderverzeichnis
  • Für 7 Tage
  • Wassertemperatur
  • Satellitenkarten
  • Wetterkarte
  • Widgets
  • user-avatar
    Anmelden

    Stündliche Wetter Mombasa

    Heute, 16 Juni, Sonntag

    Zeit Temperatur Niederschläge Wind Luftdruck Luftfeuchtigkeit
    00:00 +23°C° 0 mm 6 m/S 762 mmHg 81%
    01:00 +23°C° 0 mm 6 m/S 761 mmHg 82%
    02:00 +23°C° 0 mm 6 m/S 761 mmHg 83%
    03:00 +23°C° 0 mm 6 m/S 761 mmHg 84%
    04:00 +23°C° 0 mm 6 m/S 761 mmHg 84%
    05:00 +22°C° 0 mm 6 m/S 762 mmHg 85%
    06:00 +22°C° 0 mm 6 m/S 762 mmHg 85%
    07:00 +23°C° 0 mm 6 m/S 762 mmHg 80%
    08:00 +26°C° 0 mm 7 m/S 763 mmHg 74%
    09:00 +27°C° 0 mm 7 m/S 763 mmHg 66%
    10:00 +28°C° 0 mm 8 m/S 763 mmHg 62%
    11:00 +29°C° 0 mm 8 m/S 763 mmHg 58%
    12:00 +29°C° 0 mm 8 m/S 763 mmHg 54%
    13:00 +29°C° 0 mm 8 m/S 762 mmHg 55%
    14:00 +29°C° 0 mm 8 m/S 761 mmHg 55%
    15:00 +29°C° 0 mm 9 m/S 760 mmHg 56%
    16:00 +28°C° 0 mm 8 m/S 761 mmHg 61%
    17:00 +27°C° 0 mm 7 m/S 761 mmHg 67%
    18:00 +24°C° 0 mm 6 m/S 761 mmHg 73%
    19:00 +24°C° 0 mm 7 m/S 761 mmHg 74%
    20:00 +24°C° 0 mm 7 m/S 762 mmHg 74%
    21:00 +24°C° 0 mm 7 m/S 762 mmHg 75%
    22:00 +24°C° 0 mm 7 m/S 762 mmHg 76%
    23:00 +24°C° 0 mm 7 m/S 763 mmHg 77%

    Morgen, 17 Juni, Montag

    Zeit Temperatur Niederschläge Wind Luftdruck Luftfeuchtigkeit
    00:00 +24°C° 0 mm 7 m/S 763 mmHg 78%
    01:00 +24°C° 0 mm 6 m/S 762 mmHg 81%
    02:00 +23°C° 0 mm 6 m/S 762 mmHg 84%
    03:00 +23°C° 0 mm 6 m/S 762 mmHg 87%
    04:00 +22°C° 0 mm 6 m/S 762 mmHg 88%
    05:00 +22°C° 0 mm 6 m/S 762 mmHg 88%
    06:00 +22°C° 0 mm 5 m/S 762 mmHg 89%
    07:00 +23°C° 0.1 mm 6 m/S 763 mmHg 85%
    08:00 +26°C° 0.1 mm 6 m/S 763 mmHg 80%
    09:00 +27°C° 0.1 mm 6 m/S 764 mmHg 76%
    10:00 +28°C° 0.1 mm 7 m/S 763 mmHg 72%
    11:00 +29°C° 0.1 mm 7 m/S 763 mmHg 67%
    12:00 +31°C° 0.1 mm 8 m/S 763 mmHg 62%
    13:00 +31°C° 0 mm 8 m/S 762 mmHg 63%
    14:00 +31°C° 0 mm 8 m/S 762 mmHg 63%
    15:00 +31°C° 0 mm 8 m/S 761 mmHg 64%
    16:00 +29°C° 0 mm 8 m/S 761 mmHg 68%
    17:00 +28°C° 0 mm 7 m/S 761 mmHg 72%
    18:00 +27°C° 0 mm 7 m/S 761 mmHg 77%
    19:00 +26°C° 0 mm 7 m/S 762 mmHg 78%
    20:00 +26°C° 0 mm 7 m/S 762 mmHg 79%
    21:00 +26°C° 0 mm 7 m/S 762 mmHg 81%
    22:00 +26°C° 0 mm 7 m/S 762 mmHg 82%
    23:00 +26°C° 0 mm 7 m/S 762 mmHg 84%

    übermorgen, 18 Juni, Dienstag

    Zeit Temperatur Niederschläge Wind Luftdruck Luftfeuchtigkeit
    00:00 +26°C° 0 mm 6 m/S 762 mmHg 86%
    01:00 +24°C° 0.1 mm 6 m/S 762 mmHg 88%
    02:00 +24°C° 0.1 mm 6 m/S 762 mmHg 91%
    03:00 +23°C° 0.1 mm 5 m/S 762 mmHg 94%
    04:00 +23°C° 0.1 mm 5 m/S 762 mmHg 94%
    05:00 +23°C° 0.1 mm 5 m/S 762 mmHg 93%
    06:00 +23°C° 0.1 mm 5 m/S 762 mmHg 93%
    07:00 +25°C° 0.1 mm 5 m/S 762 mmHg 87%
    08:00 +27°C° 0.1 mm 6 m/S 763 mmHg 81%
    09:00 +28°C° 0.1 mm 6 m/S 763 mmHg 75%
    10:00 +29°C° 0.1 mm 7 m/S 763 mmHg 70%
    11:00 +30°C° 0.1 mm 7 m/S 763 mmHg 66%
    12:00 +32°C° 0.1 mm 8 m/S 763 mmHg 61%
    13:00 +32°C° 0 mm 8 m/S 762 mmHg 61%
    14:00 +32°C° 0 mm 8 m/S 762 mmHg 61%
    15:00 +32°C° 0 mm 8 m/S 761 mmHg 60%
    16:00 +29°C° 0 mm 7 m/S 761 mmHg 67%
    17:00 +28°C° 0 mm 7 m/S 761 mmHg 73%
    18:00 +27°C° 0 mm 6 m/S 761 mmHg 79%
    19:00 +27°C° 0 mm 6 m/S 761 mmHg 81%
    20:00 +26°C° 0 mm 6 m/S 762 mmHg 83%
    21:00 +26°C° 0 mm 6 m/S 762 mmHg 85%
    22:00 +26°C° 0 mm 5 m/S 762 mmHg 87%
    23:00 +25°C° 0 mm 5 m/S 762 mmHg 88%

    19 Juni, Mittwoch

    Zeit Temperatur Niederschläge Wind Luftdruck Luftfeuchtigkeit
    00:00 +25°C° 0 mm 5 m/S 762 mmHg 90%
    01:00 +25°C° 0 mm 5 m/S 762 mmHg 91%
    02:00 +25°C° 0 mm 5 m/S 761 mmHg 93%
    03:00 +23°C° 0 mm 5 m/S 761 mmHg 94%
    04:00 +23°C° 0 mm 5 m/S 761 mmHg 94%
    05:00 +23°C° 0 mm 5 m/S 761 mmHg 93%
    06:00 +23°C° 0 mm 5 m/S 762 mmHg 93%
    07:00 +25°C° 0 mm 5 m/S 762 mmHg 87%
    08:00 +27°C° 0 mm 6 m/S 762 mmHg 80%
    09:00 +28°C° 0 mm 7 m/S 763 mmHg 74%
    10:00 +29°C° 0 mm 7 m/S 763 mmHg 70%
    11:00 +30°C° 0 mm 7 m/S 762 mmHg 66%
    12:00 +32°C° 0 mm 7 m/S 762 mmHg 62%
    13:00 +32°C° 0.1 mm 8 m/S 762 mmHg 62%
    14:00 +32°C° 0.1 mm 8 m/S 761 mmHg 63%
    15:00 +32°C° 0.1 mm 8 m/S 760 mmHg 64%
    16:00 +29°C° 0.1 mm 7 m/S 760 mmHg 70%
    17:00 +28°C° 0.1 mm 7 m/S 761 mmHg 75%
    18:00 +27°C° 0.1 mm 6 m/S 761 mmHg 81%
    19:00 +27°C° 0 mm 6 m/S 761 mmHg 81%
    20:00 +26°C° 0 mm 6 m/S 761 mmHg 82%
    21:00 +26°C° 0 mm 6 m/S 762 mmHg 82%
    22:00 +26°C° 0 mm 6 m/S 762 mmHg 83%
    23:00 +24°C° 0 mm 6 m/S 762 mmHg 84%

    20 Juni, Donnerstag

    Zeit Temperatur Niederschläge Wind Luftdruck Luftfeuchtigkeit
    00:00 +24°C° 0 mm 6 m/S 762 mmHg 85%
    01:00 +24°C° 0 mm 6 m/S 761 mmHg 87%
    02:00 +24°C° 0 mm 6 m/S 761 mmHg 89%
    03:00 +24°C° 0 mm 6 m/S 760 mmHg 91%
    04:00 +23°C° 0.1 mm 6 m/S 761 mmHg 92%
    05:00 +23°C° 0.1 mm 6 m/S 761 mmHg 92%
    06:00 +23°C° 0.1 mm 6 m/S 761 mmHg 93%
    07:00 +26°C° 0.1 mm 6 m/S 762 mmHg 87%
    08:00 +27°C° 0.1 mm 7 m/S 762 mmHg 82%
    09:00 +28°C° 0.1 mm 8 m/S 762 mmHg 77%
    10:00 +29°C° 0.2 mm 8 m/S 762 mmHg 73%
    11:00 +31°C° 0.2 mm 8 m/S 762 mmHg 69%
    12:00 +31°C° 0.2 mm 8 m/S 761 mmHg 66%
    13:00 +31°C° 0.1 mm 8 m/S 761 mmHg 66%
    14:00 +31°C° 0.1 mm 8 m/S 760 mmHg 66%
    15:00 +31°C° 0.1 mm 8 m/S 759 mmHg 65%
    16:00 +29°C° 0 mm 8 m/S 759 mmHg 70%
    17:00 +28°C° 0 mm 8 m/S 759 mmHg 75%
    18:00 +27°C° 0 mm 7 m/S 759 mmHg 79%
    19:00 +26°C° 0 mm 7 m/S 760 mmHg 79%
    20:00 +26°C° 0 mm 7 m/S 760 mmHg 79%
    21:00 +26°C° 0 mm 7 m/S 761 mmHg 79%
    22:00 +24°C° 0 mm 7 m/S 761 mmHg 80%
    23:00 +24°C° 0 mm 6 m/S 761 mmHg 81%

    21 Juni, Freitag

    Zeit Temperatur Niederschläge Wind Luftdruck Luftfeuchtigkeit
    00:00 +24°C° 0 mm 6 m/S 761 mmHg 82%
    01:00 +24°C° 0 mm 6 m/S 761 mmHg 84%
    02:00 +23°C° 0 mm 5 m/S 760 mmHg 85%
    03:00 +23°C° 0 mm 5 m/S 760 mmHg 87%
    04:00 +23°C° 0 mm 5 m/S 760 mmHg 89%
    05:00 +23°C° 0 mm 5 m/S 760 mmHg 92%
    06:00 +22°C° 0 mm 5 m/S 761 mmHg 94%
    07:00 +25°C° 0.1 mm 5 m/S 761 mmHg 89%
    08:00 +26°C° 0.1 mm 6 m/S 762 mmHg 83%
    09:00 +28°C° 0.1 mm 7 m/S 762 mmHg 78%
    10:00 +29°C° 0.3 mm 7 m/S 762 mmHg 74%
    11:00 +29°C° 0.3 mm 7 m/S 761 mmHg 69%
    12:00 +30°C° 0.3 mm 7 m/S 761 mmHg 65%
    13:00 +31°C° 0.2 mm 8 m/S 761 mmHg 67%
    14:00 +31°C° 0.2 mm 8 m/S 760 mmHg 68%
    15:00 +29°C° 0.2 mm 8 m/S 759 mmHg 69%
    16:00 +28°C° 0.1 mm 7 m/S 759 mmHg 72%
    17:00 +27°C° 0.1 mm 7 m/S 759 mmHg 75%
    18:00 +26°C° 0.1 mm 6 m/S 760 mmHg 78%
    19:00 +26°C° 0 mm 6 m/S 760 mmHg 80%
    20:00 +24°C° 0 mm 6 m/S 760 mmHg 82%
    21:00 +24°C° 0 mm 6 m/S 761 mmHg 85%
    22:00 +24°C° 0 mm 6 m/S 761 mmHg 84%
    23:00 +23°C° 0 mm 5 m/S 761 mmHg 84%
    Mehr zeigen